Location: Luna
(33.8188°N, 108.9564°W)
Time: 19:46:02
(UTC+00:00)

N. Korean satellite - Pass Details

Date: 06 December 2022
Orbit: 407 x 442 km, 97.3° (Epoch: 05 February)

Event Time Altitude Azimuth Distance (km) Brightness Sun altitude
Rises 11:33:35 0° 35° (NE) 2,489 10.5 -31.1°
Reaches altitude 10° 11:36:36 10° 65° (ENE) 1,597 9.8 -30.5°
Maximum altitude 11:38:14 13° 93° (E) 1,416 9.7 -30.2°
Drops below altitude 10° 11:39:52 10° 122° (ESE) 1,575 9.9 -29.8°
Sets 11:42:47 0° 152° (SSE) 2,424 10.6 -29.2°
